When you browse on this site, cookies collect data to enhance your experience and personalize the content and advertising you see.
Visit our Privacy Policy to learn more. By continuing to use the site, you agree to this use of cookies and data.
  • In Hungary
  • List of Countries
  • For 7 days
  • Water Temperature
  • Weather Map
  • News
  • Weather Widgets
  • user-avatar
    Login

    Hourly Weather Aurora

    Today, 21 November, Thursday

    Time Temperature Precipitation Wind Pressure Humidity
    00:00 +27°C° 0 mm 1 mps 733 mmHg 47%
    01:00 +26°C° 0 mm 1 mps 734 mmHg 54%
    02:00 +25°C° 0 mm 1 mps 734 mmHg 61%
    03:00 +24°C° 0 mm 1 mps 734 mmHg 67%
    04:00 +24°C° 0 mm 1 mps 734 mmHg 68%
    05:00 +24°C° 0 mm 1 mps 735 mmHg 69%
    06:00 +24°C° 0 mm 2 mps 735 mmHg 71%
    07:00 +27°C° 0 mm 2 mps 735 mmHg 59%
    08:00 +30°C° 0 mm 2 mps 735 mmHg 47%
    09:00 +34°C° 0 mm 3 mps 735 mmHg 36%
    10:00 +37°C° 0 mm 2 mps 735 mmHg 31%
    11:00 +39°C° 0 mm 2 mps 734 mmHg 26%
    12:00 +41°C° 0 mm 2 mps 734 mmHg 21%
    13:00 +42°C° 0 mm 2 mps 732 mmHg 20%
    14:00 +42°C° 0 mm 2 mps 731 mmHg 18%
    15:00 +42°C° 0 mm 2 mps 730 mmHg 17%
    16:00 +40°C° 0 mm 2 mps 730 mmHg 21%
    17:00 +37°C° 0 mm 2 mps 731 mmHg 24%
    18:00 +35°C° 0 mm 2 mps 731 mmHg 27%
    19:00 +32°C° 0 mm 1 mps 731 mmHg 30%
    20:00 +31°C° 0 mm 1 mps 732 mmHg 33%
    21:00 +27°C° 0 mm 0 mps 732 mmHg 36%
    22:00 +28°C° 0 mm 1 mps 733 mmHg 48%
    23:00 +27°C° 0 mm 1 mps 733 mmHg 60%

    Tomorrow, 22 November, Friday

    Time Temperature Precipitation Wind Pressure Humidity
    00:00 +25°C° 0 mm 1 mps 733 mmHg 73%
    01:00 +24°C° 0 mm 1 mps 733 mmHg 78%
    02:00 +24°C° 0 mm 1 mps 733 mmHg 84%
    03:00 +21°C° 0 mm 0 mps 733 mmHg 89%
    04:00 +21°C° 0 mm 0 mps 734 mmHg 85%
    05:00 +22°C° 0 mm 0 mps 734 mmHg 81%
    06:00 +24°C° 0 mm 1 mps 734 mmHg 77%
    07:00 +27°C° 0 mm 1 mps 735 mmHg 63%
    08:00 +31°C° 0 mm 1 mps 735 mmHg 50%
    09:00 +35°C° 0 mm 2 mps 735 mmHg 36%
    10:00 +37°C° 0 mm 2 mps 735 mmHg 32%
    11:00 +39°C° 0 mm 2 mps 734 mmHg 28%
    12:00 +40°C° 0 mm 2 mps 733 mmHg 24%
    13:00 +41°C° 0 mm 2 mps 733 mmHg 22%
    14:00 +41°C° 0 mm 2 mps 732 mmHg 21%
    15:00 +42°C° 0 mm 3 mps 731 mmHg 19%
    16:00 +38°C° 0 mm 2 mps 731 mmHg 21%
    17:00 +36°C° 0 mm 2 mps 731 mmHg 24%
    18:00 +33°C° 0 mm 1 mps 731 mmHg 26%
    19:00 +32°C° 0 mm 1 mps 732 mmHg 28%
    20:00 +30°C° 0 mm 2 mps 733 mmHg 31%
    21:00 +29°C° 0 mm 2 mps 733 mmHg 33%
    22:00 +28°C° 0 mm 1 mps 733 mmHg 45%
    23:00 +26°C° 0 mm 1 mps 734 mmHg 57%

    Day after tomorrow, 23 November, Saturday

    Time Temperature Precipitation Wind Pressure Humidity
    00:00 +25°C° 0 mm 1 mps 734 mmHg 69%
    01:00 +24°C° 0 mm 1 mps 734 mmHg 73%
    02:00 +24°C° 0 mm 1 mps 734 mmHg 77%
    03:00 +23°C° 0 mm 1 mps 733 mmHg 81%
    04:00 +23°C° 0 mm 1 mps 734 mmHg 81%
    05:00 +24°C° 0 mm 1 mps 734 mmHg 80%
    06:00 +24°C° 0 mm 1 mps 735 mmHg 79%
    07:00 +27°C° 0 mm 1 mps 735 mmHg 65%
    08:00 +30°C° 0 mm 2 mps 735 mmHg 51%
    09:00 +35°C° 0 mm 2 mps 736 mmHg 37%
    10:00 +37°C° 0 mm 2 mps 735 mmHg 32%
    11:00 +39°C° 0 mm 2 mps 734 mmHg 28%
    12:00 +41°C° 0 mm 2 mps 734 mmHg 23%
    13:00 +41°C° 0 mm 2 mps 733 mmHg 22%
    14:00 +41°C° 0 mm 2 mps 732 mmHg 21%
    15:00 +42°C° 0 mm 3 mps 731 mmHg 20%
    16:00 +39°C° 0 mm 2 mps 731 mmHg 23%
    17:00 +37°C° 0 mm 2 mps 731 mmHg 26%
    18:00 +35°C° 0 mm 2 mps 731 mmHg 29%
    19:00 +32°C° 0 mm 1 mps 732 mmHg 32%
    20:00 +31°C° 0 mm 1 mps 732 mmHg 34%
    21:00 +30°C° 0 mm 1 mps 733 mmHg 37%
    22:00 +28°C° 0 mm 1 mps 733 mmHg 48%
    23:00 +27°C° 0 mm 1 mps 733 mmHg 59%

    24 November, Sunday

    Time Temperature Precipitation Wind Pressure Humidity
    00:00 +26°C° 0 mm 2 mps 733 mmHg 70%
    01:00 +25°C° 0 mm 1 mps 733 mmHg 77%
    02:00 +24°C° 0 mm 1 mps 733 mmHg 83%
    03:00 +21°C° 0 mm 0 mps 733 mmHg 90%
    04:00 +22°C° 0 mm 0 mps 733 mmHg 88%
    05:00 +22°C° 0 mm 0 mps 734 mmHg 86%
    06:00 +22°C° 0 mm 0 mps 734 mmHg 84%
    07:00 +27°C° 0 mm 1 mps 734 mmHg 70%
    08:00 +31°C° 0 mm 1 mps 734 mmHg 55%
    09:00 +35°C° 0 mm 2 mps 735 mmHg 40%
    10:00 +37°C° 0 mm 2 mps 734 mmHg 35%
    11:00 +39°C° 0 mm 2 mps 734 mmHg 29%
    12:00 +42°C° 0 mm 2 mps 733 mmHg 24%
    13:00 +42°C° 0 mm 2 mps 732 mmHg 22%
    14:00 +42°C° 0 mm 2 mps 731 mmHg 21%
    15:00 +42°C° 0 mm 2 mps 730 mmHg 20%
    16:00 +40°C° 0 mm 2 mps 730 mmHg 24%
    17:00 +37°C° 0 mm 2 mps 731 mmHg 28%
    18:00 +35°C° 0 mm 2 mps 731 mmHg 32%
    19:00 +34°C° 0 mm 2 mps 731 mmHg 35%
    20:00 +32°C° 0 mm 2 mps 732 mmHg 38%
    21:00 +31°C° 0 mm 2 mps 732 mmHg 41%
    22:00 +29°C° 0 mm 2 mps 732 mmHg 52%
    23:00 +27°C° 0 mm 2 mps 732 mmHg 62%

    25 November, Monday

    Time Temperature Precipitation Wind Pressure Humidity
    00:00 +26°C° 0 mm 2 mps 732 mmHg 73%
    01:00 +25°C° 0 mm 1 mps 732 mmHg 79%
    02:00 +24°C° 0 mm 1 mps 732 mmHg 85%
    03:00 +23°C° 0 mm 1 mps 732 mmHg 90%
    04:00 +24°C° 0 mm 1 mps 733 mmHg 87%
    05:00 +25°C° 0 mm 1 mps 733 mmHg 83%
    06:00 +26°C° 0 mm 1 mps 734 mmHg 79%
    07:00 +28°C° 0 mm 1 mps 734 mmHg 67%
    08:00 +31°C° 0 mm 2 mps 734 mmHg 56%
    09:00 +34°C° 0 mm 2 mps 735 mmHg 44%
    10:00 +37°C° 0 mm 2 mps 734 mmHg 38%
    11:00 +39°C° 0 mm 2 mps 733 mmHg 32%
    12:00 +42°C° 0 mm 2 mps 733 mmHg 25%
    13:00 +42°C° 0 mm 2 mps 732 mmHg 24%
    14:00 +43°C° 0 mm 3 mps 731 mmHg 24%
    15:00 +43°C° 0 mm 3 mps 730 mmHg 23%
    16:00 +40°C° 0 mm 2 mps 730 mmHg 27%
    17:00 +38°C° 0 mm 2 mps 730 mmHg 31%
    18:00 +35°C° 0 mm 2 mps 730 mmHg 35%
    19:00 +34°C° 0 mm 2 mps 731 mmHg 39%
    20:00 +33°C° 0 mm 3 mps 732 mmHg 42%
    21:00 +31°C° 0 mm 3 mps 732 mmHg 46%
    22:00 +29°C° 0 mm 3 mps 732 mmHg 56%
    23:00 +27°C° 0 mm 2 mps 732 mmHg 66%

    26 November, Tuesday

    Time Temperature Precipitation Wind Pressure Humidity
    00:00 +26°C° 0 mm 2 mps 733 mmHg 75%
    01:00 +25°C° 0 mm 2 mps 732 mmHg 80%
    02:00 +24°C° 0 mm 1 mps 732 mmHg 86%
    03:00 +23°C° 0 mm 1 mps 732 mmHg 91%
    04:00 +24°C° 0 mm 1 mps 733 mmHg 88%
    05:00 +25°C° 0 mm 1 mps 733 mmHg 85%
    06:00 +25°C° 0 mm 1 mps 734 mmHg 82%
    07:00 +27°C° 0 mm 2 mps 734 mmHg 72%
    08:00 +29°C° 0 mm 2 mps 734 mmHg 61%
    09:00 +31°C° 0 mm 2 mps 734 mmHg 51%
    10:00 +34°C° 0 mm 2 mps 734 mmHg 45%
    11:00 +37°C° 0 mm 3 mps 733 mmHg 38%
    12:00 +39°C° 0 mm 3 mps 733 mmHg 32%
    13:00 +39°C° 0 mm 3 mps 732 mmHg 32%
    14:00 +38°C° 0 mm 2 mps 731 mmHg 33%
    15:00 +38°C° 0 mm 2 mps 731 mmHg 33%
    16:00 +36°C° 0 mm 2 mps 731 mmHg 37%
    17:00 +35°C° 0 mm 2 mps 731 mmHg 40%
    18:00 +34°C° 0 mm 2 mps 731 mmHg 43%
    19:00 +31°C° 0.2 mm 2 mps 732 mmHg 51%
    20:00 +30°C° 0.2 mm 2 mps 733 mmHg 58%
    21:00 +28°C° 0.2 mm 2 mps 733 mmHg 65%
    22:00 +28°C° 0.1 mm 2 mps 734 mmHg 68%
    23:00 +27°C° 0.1 mm 2 mps 734 mmHg 71%
    Show more